TimeMDT,TemperatureF,Dew PointF,Humidity,Sea Level PressureIn,VisibilityMPH,Wind Direction,Wind SpeedMPH,Gust SpeedMPH,PrecipitationIn,Events,Conditions,WindDirDegrees,DateUTC
12:58 AM,67.1,62.6,85,29.89,10.0,North,10.4,-,N/A,,Clear,350,2013-09-06 06:58:00
1:18 AM,66.2,64.4,94,29.97,8.0,NNW,12.7,-,N/A,,Scattered Clouds,330,2013-09-06 07:18:00
1:58 AM,66.2,64.8,95,29.91,8.0,NNW,10.4,-,N/A,,Scattered Clouds,340,2013-09-06 07:58:00
2:43 AM,62.6,62.6,100,29.99,4.0,WNW,8.1,-,N/A,,Clear,290,2013-09-06 08:43:00
2:53 AM,64.4,62.6,94,30.00,5.0,West,9.2,-,N/A,,Clear,280,2013-09-06 08:53:00
2:58 AM,63.7,63.3,99,29.93,5.0,WNW,9.2,-,N/A,,Clear,290,2013-09-06 08:58:00
3:03 AM,64.4,62.6,94,30.00,5.0,WNW,10.4,-,N/A,,Partly Cloudy,290,2013-09-06 09:03:00
3:48 AM,62.6,62.6,100,30.02,6.0,WNW,9.2,-,N/A,,Mostly Cloudy,290,2013-09-06 09:48:00
3:58 AM,63.3,63.0,99,29.95,6.0,West,8.1,-,N/A,,Overcast,270,2013-09-06 09:58:00
4:58 AM,61.3,61.0,99,29.97,8.0,West,5.8,-,N/A,,Mostly Cloudy,280,2013-09-06 10:58:00
5:23 AM,60.8,60.8,100,30.04,10.0,West,6.9,-,N/A,,Mostly Cloudy,280,2013-09-06 11:23:00
5:58 AM,61.0,60.6,99,29.97,10.0,WNW,8.1,-,N/A,,Scattered Clouds,290,2013-09-06 11:58:00
6:58 AM,60.6,60.3,99,29.99,10.0,WNW,9.2,-,N/A,,Overcast,290,2013-09-06 12:58:00
7:58 AM,61.9,61.2,97,30.03,10.0,NNW,10.4,-,N/A,,Scattered Clouds,330,2013-09-06 13:58:00
8:58 AM,66.7,55.6,67,30.04,10.0,NW,12.7,-,N/A,,Mostly Cloudy,320,2013-09-06 14:58:00
9:58 AM,67.5,50.7,55,30.06,10.0,NW,19.6,-,N/A,,Clear,310,2013-09-06 15:58:00
10:58 AM,71.1,44.1,38,30.07,10.0,NW,18.4,-,N/A,,Clear,310,2013-09-06 16:58:00
11:58 AM,74.5,38.7,27,30.07,10.0,NNW,19.6,-,N/A,,Clear,330,2013-09-06 17:58:00
12:58 PM,76.8,38.5,25,30.05,10.0,NW,17.3,-,N/A,,Clear,310,2013-09-06 18:58:00
1:38 PM,77.0,39.2,26,30.11,10.0,NNW,15.0,-,N/A,,Clear,340,2013-09-06 19:38:00
1:42 PM,77.0,39.2,26,30.11,10.0,WNW,12.7,-,N/A,,Clear,300,2013-09-06 19:42:00
1:58 PM,77.2,39.2,26,30.04,10.0,NNW,13.8,21.9,N/A,,Clear,340,2013-09-06 19:58:00
2:31 PM,78.8,41.0,26,30.09,10.0,NW,12.7,19.6,N/A,,Clear,310,2013-09-06 20:31:00
2:58 PM,79.2,41.5,26,30.02,10.0,NNW,13.8,24.2,N/A,,Clear,330,2013-09-06 20:58:00
3:58 PM,80.1,40.6,25,30.00,10.0,NNW,12.7,-,N/A,,Clear,330,2013-09-06 21:58:00
4:58 PM,79.9,39.6,24,29.98,10.0,NW,13.8,-,N/A,,Clear,320,2013-09-06 22:58:00
5:58 PM,79.5,40.3,25,29.98,10.0,NW,15.0,-,N/A,,Clear,310,2013-09-06 23:58:00
6:58 PM,78.4,39.4,25,29.97,10.0,NW,19.6,-,N/A,,Clear,320,2013-09-07 00:58:00
7:58 PM,75.2,39.6,28,29.98,10.0,NW,16.1,-,N/A,,Clear,320,2013-09-07 01:58:00
8:58 PM,67.8,40.3,37,30.01,10.0,NW,10.4,-,N/A,,Clear,310,2013-09-07 02:58:00
9:58 PM,66.0,41.0,40,30.01,10.0,NW,13.8,-,N/A,,Clear,310,2013-09-07 03:58:00
10:58 PM,64.4,41.2,43,30.03,10.0,NW,13.8,-,N/A,,Clear,320,2013-09-07 04:58:00
11:58 PM,61.0,41.9,49,30.03,10.0,NW,9.2,-,N/A,,Clear,310,2013-09-07 05:58:00